CQ0XBF-11 Weather Reports


Display with metric or nautical units.
time (UTC)temp
F
wind
direction
speed
MPH
gust
MPH
rain 1hr
in
rain 24hr
in
rain mn
in
humidity
%
barometer
mb
20210613083226 77 142 3.0 4.0 0.00 0.00 0.00 60 1014.5
20210613083025 76 67 0.0 9.0 0.00 0.00 0.00 60 1014.4
20210613082823 76 201 2.0 9.0 0.00 0.00 0.00 59 1014.5
20210613082622 76 19 1.0 3.0 0.00 0.00 0.00 59 1014.4
20210613082420 76 136 0.0 3.0 0.00 0.00 0.00 59 1014.4
20210613082218 76 163 0.0 3.0 0.00 0.00 0.00 59 1014.4
20210613082017 76 60 0.0 7.0 0.00 0.00 0.00 60 1014.3
20210613081816 76 60 0.0 7.0 0.00 0.00 0.00 60 1014.4
20210613081612 76 97 0.0 6.0 0.00 0.00 0.00 60 1014.4
20210613081411 76 37 1.0 6.0 0.00 0.00 0.00 60 1014.4
20210613081209 75 35 1.0 6.0 0.00 0.00 0.00 61 1014.4
20210613081008 76 122 1.0 9.0 0.00 0.00 0.00 60 1014.4
20210613080806 76 151 3.0 9.0 0.00 0.00 0.00 59 1014.4
20210613080605 76 132 3.0 3.0 0.00 0.00 0.00 58 1014.4
20210613080403 76 251 0.0 3.0 0.00 0.00 0.00 58 1014.3
20210613080202 76 139 0.0 6.0 0.00 0.00 0.00 58 1014.4
20210613080000 76 146 0.0 6.0 0.00 0.00 0.00 58 1014.3
20210613075759 76 49 1.0 6.0 0.00 0.00 0.00 58 1014.3
20210613075557 76 126 6.0 6.0 0.00 0.00 0.00 57 1014.3
20210613075356 76 142 4.0 6.0 0.00 0.00 0.00 57 1014.2
20210613075154 76 111 2.0 5.0 0.00 0.00 0.00 56 1014.2
20210613074953 76 105 0.0 5.0 0.00 0.00 0.00 55 1014.2
20210613074751 77 150 3.0 5.0 0.00 0.00 0.00 55 1014.2
20210613074549 77 149 4.0 3.0 0.00 0.00 0.00 55 1014.2
20210613074348 77 105 3.0 3.0 0.00 0.00 0.00 52 1014.2
20210613074146 78 165 0.0 3.0 0.00 0.00 0.00 55 1014.2
20210613073944 78 165 1.0 3.0 0.00 0.00 0.00 56 1014.1
20210613073743 77 118 0.0 3.0 0.00 0.00 0.00 57 1014.2
20210613073541 77 118 0.0 2.0 0.00 0.00 0.00 58 1014.2
20210613073340 76 118 0.0 2.0 0.00 0.00 0.00 57 1014.1
20210613073138 76 82 0.0 0.0 0.00 0.00 0.00 57 1014.1
20210613072937 76 219 0.0 0.0 0.00 0.00 0.00 58 1014.1
20210613072735 75 352 2.0 0.0 0.00 0.00 0.00 60 1014.0
20210613072534 75 319 0.0 0.0 0.00 0.00 0.00 62 1014.0
20210613072332 74 319 0.0 0.0 0.00 0.00 0.00 64 1014.1
20210613072131 73 319 0.0 0.0 0.00 0.00 0.00 65 1014.0
20210613071929 72 319 0.0 0.0 0.00 0.00 0.00 67 1013.9
20210613071728 72 319 0.0 0.0 0.00 0.00 0.00 68 1014.0
20210613071325 72 319 0.0 4.0 0.00 0.00 0.00 66 1013.9
20210613071123 73 338 1.0 0.0 0.00 0.00 0.00 64 1013.9
20210613070921 73 295 0.0 0.0 0.00 0.00 0.00 63 1013.9
20210613070719 74 46 0.0 0.0 0.00 0.00 0.00 63 1013.8
20210613070518 74 46 0.0 0.0 0.00 0.00 0.00 62 1013.8
20210613070316 74 46 0.0 0.0 0.00 0.00 0.00 61 1013.7
20210613070115 74 46 0.0 4.0 0.00 0.00 0.00 61 1013.7
20210613065913 74 46 0.0 4.0 0.00 0.00 0.00 64 1013.8
20210613065712 72 46 0.0 4.0 0.00 0.00 0.00 67 1013.7
20210613065309 70 73 0.0 7.0 0.00 0.00 0.00 73 1013.6
20210613065107 69 157 0.0 4.0 0.00 0.00 0.00 75 1013.5
20210613064906 68 116 0.0 4.0 0.00 0.00 0.00 79 1013.5
20210613064704 68 154 1.0 3.0 0.00 0.00 0.00 81 1013.5
20210613064503 67 226 0.0 3.0 0.00 0.00 0.00 82 1013.5
20210613064301 67 213 1.0 3.0 0.00 0.00 0.00 82 1013.5
20210613064059 67 222 0.0 5.0 0.00 0.00 0.00 83 1013.5
20210613063858 67 234 0.0 5.0 0.00 0.00 0.00 82 1013.5
20210613063656 66 181 1.0 5.0 0.00 0.00 0.00 82 1013.5
20210613063454 67 140 2.0 5.0 0.00 0.00 0.00 82 1013.5
20210613063253 66 163 1.0 5.0 0.00 0.00 0.00 82 1013.5
20210613063051 66 140 0.0 6.0 0.00 0.00 0.00 82 1013.5
20210613062850 66 178 1.0 6.0 0.00 0.00 0.00 82 1013.4
20210613062648 66 122 4.0 6.0 0.00 0.00 0.00 82 1013.4
20210613062447 66 164 4.0 6.0 0.00 0.00 0.00 83 1013.4
20210613062245 66 153 2.0 6.0 0.00 0.00 0.00 83 1013.3
20210613062044 66 149 2.0 7.0 0.00 0.00 0.00 83 1013.3
20210613061842 66 81 0.0 7.0 0.00 0.00 0.00 83 1013.4
20210613061641 66 147 2.0 8.0 0.00 0.00 0.00 83 1013.3
20210613061439 66 161 4.0 8.0 0.00 0.00 0.00 83 1013.4
20210613061238 66 77 0.0 8.0 0.00 0.00 0.00 84 1013.4
20210613061036 66 146 1.0 5.0 0.00 0.00 0.00 84 1013.4
20210613060834 66 118 1.0 5.0 0.00 0.00 0.00 84 1013.4
20210613060633 66 123 0.0 9.0 0.00 0.00 0.00 85 1013.4
20210613060431 66 123 0.0 9.0 0.00 0.00 0.00 85 1013.5
20210613060230 66 177 2.0 9.0 0.00 0.00 0.00 85 1013.5
20210613060057 66 189 5.0 7.0 0.00 0.00 0.00 85 1013.5
20210613055826 66 164 1.0 7.0 0.00 0.00 0.00 85 1013.5
20210613055625 66 84 0.0 8.0 0.00 0.00 0.00 85 1013.5
20210613055423 66 175 1.0 8.0 0.00 0.00 0.00 85 1013.4
20210613055222 66 139 3.0 8.0 0.00 0.00 0.00 86 1013.4
20210613055020 66 132 2.0 5.0 0.00 0.00 0.00 86 1013.3
20210613054819 66 132 3.0 5.0 0.00 0.00 0.00 86 1013.3
20210613054617 66 136 3.0 5.0 0.00 0.00 0.00 87 1013.4
20210613054416 65 130 2.0 5.0 0.00 0.00 0.00 87 1013.3
20210613054214 65 161 3.0 5.0 0.00 0.00 0.00 87 1013.4
20210613054013 66 82 0.0 1.0 0.00 0.00 0.00 88 1013.3
20210613053811 66 136 0.0 1.0 0.00 0.00 0.00 89 1013.3
20210613053609 66 132 0.0 6.0 0.00 0.00 0.00 89 1013.3
20210613053408 66 132 0.0 6.0 0.00 0.00 0.00 89 1013.3
20210613053206 65 157 1.0 6.0 0.00 0.00 0.00 89 1013.3
20210613053005 65 82 0.0 9.0 0.00 0.00 0.00 90 1013.3
20210613052803 65 151 1.0 9.0 0.00 0.00 0.00 90 1013.3
20210613052601 65 123 0.0 8.0 0.00 0.00 0.00 91 1013.2
20210613052400 65 136 3.0 8.0 0.00 0.00 0.00 91 1013.2
20210613052158 65 67 2.0 7.0 0.00 0.00 0.00 92 1013.2
20210613051957 65 153 7.0 7.0 0.00 0.00 0.00 92 1013.1
20210613051755 65 122 3.0 7.0 0.00 0.00 0.00 92 1013.1
20210613051554 65 147 4.0 3.0 0.00 0.00 0.00 93 1013.2
20210613051352 65 140 3.0 3.0 0.00 0.00 0.00 93 1013.2
20210613051151 65 139 2.0 3.0 0.00 0.00 0.00 93 1013.2
20210613050949 65 143 1.0 3.0 0.00 0.00 0.00 93 1013.2
20210613050748 65 133 1.0 3.0 0.00 0.00 0.00 93 1013.2
20210613050546 65 125 2.0 3.0 0.00 0.00 0.00 93 1013.2
20210613050345 65 87 2.0 3.0 0.00 0.00 0.00 93 1013.2
20210613050143 66 140 0.0 3.0 0.00 0.00 0.00 93 1013.1
20210613045941 66 122 1.0 3.0 0.00 0.00 0.00 93 1013.2
20210613045740 66 113 1.0 3.0 0.00 0.00 0.00 94 1013.1
20210613045538 66 84 2.0 2.0 0.00 0.00 0.00 94 1013.1
20210613045336 66 45 0.0 2.0 0.00 0.00 0.00 94 1013.1
20210613045135 66 67 2.0 0.0 0.00 0.00 0.00 94 1013.0
20210613044933 66 126 0.0 0.0 0.00 0.00 0.00 94 1013.0
20210613044732 66 149 1.0 0.0 0.00 0.00 0.00 94 1013.0
20210613044530 66 203 0.0 0.0 0.00 0.00 0.00 94 1013.0
20210613044329 67 203 0.0 0.0 0.00 0.00 0.00 94 1012.9
20210613044127 66 203 0.0 0.0 0.00 0.00 0.00 94 1012.9
20210613043926 66 203 0.0 0.0 0.00 0.00 0.00 94 1013.0
20210613043724 66 203 0.0 0.0 0.00 0.00 0.00 94 1013.0
20210613043525 66 203 0.0 0.0 0.00 0.00 0.00 94 1013.0
20210613043321 66 203 0.0 0.0 0.00 0.00 0.00 94 1013.0
20210613043120 66 203 0.0 0.0 0.00 0.00 0.00 94 1013.0
20210613042918 66 203 0.0 0.0 0.00 0.00 0.00 94 1013.0
20210613042716 66 203 0.0 0.0 0.00 0.00 0.00 94 1013.0
20210613042515 66 203 0.0 0.0 0.00 0.00 0.00 94 1013.0
20210613042313 66 203 0.0 0.0 0.00 0.00 0.00 94 1012.9
20210613042111 67 203 0.0 3.0 0.00 0.00 0.00 93 1012.9
20210613041910 66 203 0.0 3.0 0.00 0.00 0.00 93 1012.9
20210613041708 66 203 0.0 3.0 0.00 0.00 0.00 93 1012.9
20210613041507 66 216 2.0 3.0 0.00 0.00 0.00 93 1012.9
20210613041305 66 199 2.0 3.0 0.00 0.00 0.00 93 1012.9
20210613041104 66 199 2.0 3.0 0.00 0.00 0.00 93 1012.9
20210613040902 66 171 2.0 3.0 0.00 0.00 0.00 93 1012.9
20210613040701 66 168 1.0 4.0 0.00 0.00 0.00 93 1012.9
20210613040459 66 172 1.0 4.0 0.00 0.00 0.00 93 1012.9
20210613040258 66 165 1.0 4.0 0.00 0.00 0.00 93 1012.8
20210613040056 67 189 2.0 3.0 0.00 0.00 0.00 93 1012.8
20210613035855 66 189 3.0 3.0 0.00 0.00 0.00 92 1012.8
20210613035653 66 174 0.0 3.0 0.00 0.00 0.00 92 1012.8
20210613035451 67 191 2.0 3.0 0.00 0.00 0.00 92 1012.8
20210613035250 66 196 0.0 3.0 0.00 0.00 0.00 92 1012.8
20210613035048 66 219 2.0 0.0 0.00 0.00 0.00 92 1012.8
20210613034847 67 64 0.0 0.0 0.00 0.00 0.00 92 1012.8
20210613034645 67 64 0.0 0.0 0.00 0.00 0.00 93 1012.8
20210613034443 67 64 0.0 0.0 0.00 0.00 0.00 93 1012.8
20210613034242 66 64 0.0 0.0 0.00 0.00 0.00 93 1012.7
20210613034040 66 64 0.0 2.0 0.00 0.00 0.00 93 1012.7
20210613033839 66 64 0.0 2.0 0.00 0.00 0.00 93 1012.7
20210613033637 66 98 0.0 3.0 0.00 0.00 0.00 93 1012.6
20210613033436 66 90 0.0 3.0 0.00 0.00 0.00 93 1012.7
20210613033234 66 15 0.0 3.0 0.00 0.00 0.00 94 1012.7
20210613033034 66 8 1.0 2.0 0.00 0.00 0.00 94 1012.7
20210613032831 66 23 2.0 2.0 0.00 0.00 0.00 94 1012.6
20210613032630 66 355 2.0 2.0 0.00 0.00 0.00 93 1012.6
20210613032428 67 320 0.0 2.0 0.00 0.00 0.00 93 1012.7
20210613032227 66 320 1.0 2.0 0.00 0.00 0.00 93 1012.8
20210613032025 66 303 2.0 4.0 0.00 0.00 0.00 92 1012.6
20210613031823 66 291 0.0 4.0 0.00 0.00 0.00 92 1012.6
20210613031622 66 291 0.0 3.0 0.00 0.00 0.00 92 1012.6
20210613031420 67 326 0.0 3.0 0.00 0.00 0.00 92 1012.4
20210613031218 66 334 2.0 3.0 0.00 0.00 0.00 91 1012.4
20210613031017 66 352 1.0 3.0 0.00 0.00 0.00 90 1012.4
20210613030815 67 338 1.0 3.0 0.00 0.00 0.00 89 1012.3
20210613030614 66 334 1.0 4.0 0.00 0.00 0.00 89 1012.3
20210613030412 67 21 0.0 4.0 0.00 0.00 0.00 89 1012.3
20210613030211 67 9 0.0 4.0 0.00 0.00 0.00 88 1012.4
20210613030009 67 15 1.0 3.0 0.00 0.00 0.00 88 1012.4
20210613025808 67 333 0.0 3.0 0.00 0.00 0.00 89 1012.5
20210613025606 67 154 0.0 4.0 0.00 0.00 0.00 89 1012.5
20210613025405 67 90 0.0 4.0 0.00 0.00 0.00 89 1012.5
20210613025203 67 67 0.0 7.0 0.00 0.00 0.00 89 1012.5
20210613025002 67 136 0.0 7.0 0.00 0.00 0.00 89 1012.5
20210613024800 67 91 0.0 7.0 0.00 0.00 0.00 89 1012.5
20210613024558 67 84 0.0 5.0 0.00 0.00 0.00 89 1012.5
20210613024357 67 90 2.0 5.0 0.00 0.00 0.00 89 1012.4
20210613024155 67 150 0.0 4.0 0.00 0.00 0.00 89 1012.5
20210613023953 68 30 1.0 4.0 0.00 0.00 0.00 90 1012.4
20210613023752 67 102 2.0 4.0 0.00 0.00 0.00 90 1012.5
20210613023550 67 73 2.0 4.0 0.00 0.00 0.00 90 1012.6
20210613023349 67 139 1.0 4.0 0.00 0.00 0.00 90 1012.6
20210613023147 67 102 3.0 6.0 0.00 0.00 0.00 90 1012.7
20210613022946 67 75 1.0 6.0 0.00 0.00 0.00 90 1012.8
20210613022744 67 26 2.0 6.0 0.00 0.00 0.00 90 1012.8
20210613022543 67 82 1.0 5.0 0.00 0.00 0.00 90 1012.7
20210613022341 67 109 2.0 5.0 0.00 0.00 0.00 90 1012.7
20210613022140 67 73 0.0 5.0 0.00 0.00 0.00 90 1012.7
20210613021938 67 85 3.0 5.0 0.00 0.00 0.00 90 1012.9
20210613021737 67 61 2.0 5.0 0.00 0.00 0.00 90 1012.8
20210613021535 67 119 2.0 2.0 0.00 0.00 0.00 90 1012.9
20210613021333 67 85 1.0 2.0 0.00 0.00 0.00 90 1013.0
20210613021132 67 97 0.0 2.0 0.00 0.00 0.00 90 1013.0
20210613020930 67 343 0.0 2.0 0.00 0.00 0.00 90 1013.0
20210613020729 67 343 0.0 2.0 0.00 0.00 0.00 90 1013.1
20210613020527 67 329 2.0 2.0 0.00 0.00 0.00 90 1013.1
20210613020325 67 1 0.0 2.0 0.00 0.00 0.00 90 1013.2
20210613020124 67 81 0.0 3.0 0.00 0.00 0.00 90 1013.2
20210613015922 67 334 0.0 3.0 0.00 0.00 0.00 90 1013.2
20210613015721 67 104 0.0 3.0 0.00 0.00 0.00 90 1013.2
20210613015519 67 343 0.0 4.0 0.00 0.00 0.00 89 1013.3
20210613015318 67 12 1.0 4.0 0.00 0.00 0.00 89 1013.2
20210613015116 67 355 2.0 2.0 0.00 0.00 0.00 88 1013.2
20210613014915 67 350 0.0 2.0 0.00 0.00 0.00 88 1013.2
20210613014713 68 334 1.0 2.0 0.00 0.00 0.00 88 1013.2
20210613014512 68 53 0.0 3.0 0.00 0.00 0.00 88 1013.2
20210613014310 68 95 1.0 3.0 0.00 0.00 0.00 88 1013.1
20210613014109 68 111 1.0 3.0 0.00 0.00 0.00 88 1013.1
20210613013907 67 90 0.0 3.0 0.00 0.00 0.00 88 1013.1
20210613013705 67 133 2.0 3.0 0.00 0.00 0.00 88 1013.1
20210613013504 68 108 0.0 4.0 0.00 0.00 0.00 88 1013.1
20210613013302 68 84 0.0 4.0 0.00 0.00 0.00 88 1013.2
20210613013101 67 158 1.0 5.0 0.00 0.00 0.00 88 1013.2
20210613012859 67 130 1.0 5.0 0.00 0.00 0.00 88 1013.2
20210613012657 68 116 4.0 8.0 0.00 0.00 0.00 88 1013.2
20210613012456 68 135 1.0 8.0 0.00 0.00 0.00 88 1013.3
20210613012254 68 164 1.0 8.0 0.00 0.00 0.00 88 1013.2
20210613012053 67 157 3.0 6.0 0.00 0.00 0.00 88 1013.2
20210613011851 68 140 3.0 6.0 0.00 0.00 0.00 88 1013.1
20210613011650 68 177 3.0 4.0 0.00 0.00 0.00 88 1013.1
20210613011448 67 160 3.0 4.0 0.00 0.00 0.00 87 1013.2
20210613011247 68 143 3.0 4.0 0.00 0.00 0.00 87 1013.1
20210613011045 68 143 2.0 4.0 0.00 0.00 0.00 87 1013.1
20210613010844 68 136 1.0 4.0 0.00 0.00 0.00 87 1013.1
20210613010642 68 157 1.0 7.0 0.00 0.00 0.00 87 1013.1
20210613010440 68 178 1.0 7.0 0.00 0.00 0.00 87 1013.0
20210613010239 68 202 3.0 7.0 0.00 0.00 0.00 87 1013.0
20210613010037 68 198 4.0 8.0 0.00 0.00 0.00 87 1013.1
20210613005835 68 156 3.0 8.0 0.00 0.00 0.00 87 1013.1
20210613005634 68 196 4.0 7.0 0.00 0.00 0.00 86 1013.2
20210613005432 68 175 3.0 7.0 0.00 0.00 0.00 86 1013.0
20210613005231 68 196 5.0 7.0 0.00 0.00 0.00 86 1013.0
20210613005034 68 189 6.0 4.0 0.00 0.00 0.00 85 1012.9
20210613004828 68 172 3.0 4.0 0.00 0.00 0.00 85 1012.9
20210613004626 68 180 2.0 4.0 0.00 0.00 0.00 85 1012.8
20210613004425 68 153 1.0 4.0 0.00 0.00 0.00 85 1012.8
20210613004223 68 189 2.0 4.0 0.00 0.00 0.00 85 1012.7
20210613004022 68 97 0.0 4.0 0.00 0.00 0.00 85 1012.5
20210613003820 69 135 2.0 4.0 0.00 0.00 0.00 84 1012.6
20210613003619 68 135 2.0 3.0 0.00 0.00 0.00 84 1012.5
20210613003417 68 153 3.0 3.0 0.00 0.00 0.00 84 1012.4
20210613003215 68 191 3.0 3.0 0.00 0.00 0.00 84 1012.4
20210613003014 68 187 2.0 4.0 0.00 0.00 0.00 84 1012.4
20210613002812 68 199 0.0 4.0 0.00 0.00 0.00 84 1012.4
20210613002409 69 248 2.0 4.0 0.00 0.00 0.00 84 1012.2
20210613002207 68 213 2.0 4.0 0.00 0.00 0.00 84 1012.3
20210613002006 68 189 2.0 1.0 0.00 0.00 0.00 84 1012.3
20210613001804 69 203 2.0 1.0 0.00 0.00 0.00 84 1012.2
20210613001603 68 144 0.0 2.0 0.00 0.00 0.00 84 1012.2
20210613001401 68 144 0.0 2.0 0.00 0.00 0.00 84 1012.2
20210613001200 69 144 0.0 7.0 0.00 0.00 0.00 84 1012.2
20210613000958 68 135 1.0 7.0 0.00 0.00 0.00 84 1012.1
20210613000757 69 125 0.0 7.0 0.00 0.00 0.00 83 1012.2
20210613000555 68 97 2.0 6.0 0.00 0.00 0.00 83 1012.2
20210613000354 69 127 3.0 6.0 0.00 0.00 0.00 82 1012.4
20210612234539 69 39 2.0 1.0 0.00 0.00 0.52 80 1012.0
20210612234338 69 64 0.0 1.0 0.00 0.00 0.52 79 1011.9
20210612234136 70 64 0.0 3.0 0.00 0.00 0.52 79 1011.9
20210612233935 69 64 0.0 3.0 0.00 0.00 0.52 79 1011.9
20210612233733 69 39 0.0 3.0 0.00 0.00 0.52 79 1011.8
20210612233532 69 151 0.0 5.0 0.00 0.00 0.52 79 1011.9
20210612233330 69 334 0.0 5.0 0.00 0.00 0.52 79 1011.9
20210612233129 69 358 1.0 2.0 0.00 0.00 0.52 79 1011.9
20210612232927 70 5 0.0 2.0 0.00 0.00 0.52 80 1011.9
20210612232726 69 352 2.0 2.0 0.00 0.00 0.52 80 1011.9
20210612232524 69 355 1.0 3.0 0.00 0.00 0.52 81 1011.9
20210612232322 69 36 0.0 3.0 0.00 0.00 0.52 81 1011.9
20210612232121 70 355 0.0 2.0 0.00 0.00 0.52 81 1011.9
20210612231919 69 355 0.0 2.0 0.00 0.00 0.52 81 1011.8
20210612231717 69 317 0.0 2.0 0.00 0.00 0.52 81 1011.8
20210612231516 69 323 0.0 7.0 0.00 0.00 0.52 81 1011.8
20210612231314 69 0 2.0 7.0 0.00 0.00 0.52 81 1011.9
20210612231113 69 341 1.0 6.0 0.00 0.00 0.52 82 1011.9
20210612230911 69 289 2.0 6.0 0.00 0.00 0.52 81 1011.9
20210612230710 69 2 3.0 6.0 0.00 0.00 0.52 81 1011.9
20210612230508 69 309 1.0 8.0 0.00 0.00 0.52 84 1011.9
20210612230307 68 322 1.0 8.0 0.00 0.00 0.52 84 1011.8
20210612230105 68 333 5.0 13.0 0.00 0.00 0.52 84 1011.8
20210612225904 68 284 1.0 13.0 0.00 0.00 0.52 86 1011.8
20210612225702 68 255 5.0 13.0 0.00 0.00 0.52 86 1011.9
20210612225501 68 303 4.0 13.0 0.00 0.00 0.52 86 1011.8
20210612225259 68 188 8.0 13.0 0.00 0.00 0.52 87 1012.0
20210612225057 68 184 7.0 13.0 0.00 0.00 0.52 87 1012.0
20210612224856 68 154 9.0 13.0 0.00 0.00 0.52 86 1011.9
20210612224654 68 133 4.0 7.0 0.00 0.00 0.52 86 1011.8
20210612224452 68 151 5.0 7.0 0.00 0.00 0.52 85 1011.1
20210612224251 68 358 5.0 7.0 0.00 0.00 0.52 85 1011.1
20210612224049 68 240 2.0 12.0 0.00 0.00 0.52 85 1011.4
20210612223848 68 184 1.0 12.0 0.00 0.00 0.52 84 1011.6
20210612223646 68 358 4.0 8.0 0.00 0.00 0.52 84 1011.7
20210612223445 68 324 6.0 8.0 0.00 0.00 0.52 83 1011.9
20210612223243 68 358 5.0 8.0 0.00 0.00 0.52 83 1012.0
20210612223042 69 350 5.0 3.0 0.00 0.00 0.52 81 1012.1
20210612222840 69 331 6.0 3.0 0.00 0.00 0.52 78 1012.4
20210612222639 70 337 2.0 5.0 0.00 0.00 0.52 77 1012.6
20210612222437 70 88 0.0 5.0 0.00 0.00 0.52 79 1012.7
20210612222236 70 158 1.0 5.0 0.00 0.00 0.52 79 1012.8
20210612222034 70 198 3.0 9.0 0.00 0.00 0.52 79 1013.0
20210612221833 70 184 2.0 9.0 0.00 0.00 0.52 78 1013.0
20210612221631 70 213 4.0 4.0 0.00 0.00 0.52 77 1013.0
20210612221429 71 239 3.0 4.0 0.00 0.00 0.52 76 1012.9
20210612221227 71 237 3.0 4.0 0.00 0.00 0.52 75 1012.8
20210612221026 71 239 1.0 3.0 0.00 0.00 0.52 75 1012.8
20210612220824 71 264 0.0 3.0 0.00 0.00 0.52 75 1012.7
20210612220623 71 302 1.0 2.0 0.00 0.00 0.52 75 1012.7
20210612220421 71 59 0.0 2.0 0.00 0.00 0.52 75 1012.7
20210612220220 71 59 0.0 2.0 0.00 0.00 0.52 75 1012.7
20210612220019 71 59 0.0 4.0 0.00 0.00 0.52 75 1012.8
20210612215817 71 88 2.0 4.0 0.00 0.00 0.52 76 1012.7
20210612215614 70 92 0.0 3.0 0.00 0.00 0.52 75 1012.7
20210612215413 70 109 2.0 3.0 0.00 0.00 0.52 75 1012.7
20210612215211 70 149 2.0 3.0 0.00 0.00 0.52 75 1012.6
20210612215010 70 132 1.0 5.0 0.00 0.00 0.52 74 1012.5
20210612214808 70 118 1.0 5.0 0.00 0.00 0.52 74 1012.5
20210612214607 70 85 3.0 5.0 0.00 0.00 0.52 75 1012.5
20210612214405 70 78 4.0 5.0 0.00 0.00 0.52 75 1012.3
20210612214203 70 102 1.0 5.0 0.00 0.00 0.52 74 1012.2
20210612214002 70 125 2.0 5.0 0.00 0.00 0.52 73 1012.2
20210612213800 70 71 4.0 5.0 0.00 0.00 0.52 72 1012.2
20210612213558 70 94 4.0 4.0 0.00 0.00 0.52 72 1012.1
20210612213357 71 139 3.0 4.0 0.00 0.00 0.52 71 1012.1
20210612213155 71 88 4.0 5.0 0.00 0.00 0.52 70 1012.1
20210612212954 71 91 2.0 5.0 0.00 0.00 0.52 70 1012.0
20210612212752 71 84 2.0 5.0 0.00 0.00 0.52 71 1012.0
20210612212551 70 125 2.0 5.0 0.00 0.00 0.52 71 1012.0
20210612212349 70 140 4.0 5.0 0.00 0.00 0.52 71 1011.9
20210612212148 70 122 2.0 5.0 0.00 0.00 0.52 71 1012.0
20210612211946 70 59 3.0 5.0 0.00 0.00 0.52 72 1011.9
20210612211745 70 151 3.0 5.0 0.00 0.00 0.52 72 1011.9
20210612211543 70 135 3.0 5.0 0.00 0.00 0.52 72 1011.9
20210612211342 70 135 3.0 5.0 0.00 0.00 0.52 73 1011.9
20210612211140 70 132 3.0 6.0 0.00 0.00 0.52 73 1011.9
20210612210938 70 139 2.0 6.0 0.00 0.00 0.52 73 1012.0
20210612210737 69 158 1.0 6.0 0.00 0.00 0.52 72 1011.8
20210612210535 70 140 3.0 5.0 0.00 0.00 0.52 72 1011.9
20210612210333 70 151 3.0 5.0 0.00 0.00 0.52 72 1011.8
20210612210132 69 125 4.0 5.0 0.00 0.00 0.52 72 1011.6
20210612205930 69 136 3.0 5.0 0.00 0.00 0.52 75 1011.6
20210612205729 69 151 3.0 5.0 0.00 0.00 0.52 74 1011.6
20210612205527 69 126 4.0 7.0 0.00 0.00 0.52 74 1011.7
20210612205326 69 102 5.0 7.0 0.00 0.00 0.52 74 1011.6
20210612205124 69 118 4.0 5.0 0.00 0.00 0.52 74 1011.6
20210612204923 69 139 4.0 5.0 0.00 0.00 0.52 74 1011.5
20210612204721 69 135 4.0 5.0 0.00 0.00 0.52 75 1011.4
20210612204520 70 175 1.0 5.0 0.00 0.00 0.51 76 1011.4
20210612204318 69 157 4.0 5.0 0.00 0.00 0.51 76 1011.3
20210612204117 69 135 3.0 6.0 0.00 0.00 0.51 76 1011.3
20210612203915 69 175 3.0 6.0 0.00 0.00 0.51 77 1011.3
20210612203713 69 144 3.0 6.0 0.00 0.00 0.51 78 1011.3
20210612203512 69 104 5.0 6.0 0.00 0.00 0.51 78 1011.2
20210612203310 70 105 4.0 6.0 0.00 0.00 0.51 81 1011.3
20210612203108 69 108 3.0 5.0 0.00 0.00 0.51 81 1011.2
20210612202907 69 116 2.0 5.0 0.00 0.00 0.51 82 1011.3
20210612202705 69 127 3.0 5.0 0.00 0.00 0.51 84 1011.3
20210612202504 69 160 2.0 7.0 0.00 0.00 0.51 82 1011.2
20210612202305 69 126 4.0 7.0 0.00 0.00 0.51 86 1011.2
20210612202101 69 75 1.0 10.0 0.00 0.00 0.51 87 1011.0
20210612201859 69 14 2.0 10.0 0.00 0.00 0.51 89 1010.7
20210612201658 69 133 7.0 7.0 0.00 0.00 0.51 90 1010.8
20210612201456 70 165 3.0 7.0 0.00 0.00 0.51 93 1010.9
20210612201255 70 98 0.0 7.0 0.00 0.00 0.51 92 1010.9
20210612201053 70 156 2.0 6.0 0.00 0.00 0.51 94 1010.8
20210612200852 70 201 0.0 6.0 0.00 0.00 0.51 93 1010.8
20210612200650 70 14 0.0 6.0 0.00 0.00 0.51 92 1010.9
20210612200448 69 78 2.0 6.0 0.00 0.00 0.51 90 1010.8
20210612200247 70 1 0.0 6.0 0.00 0.00 0.51 89 1010.7
20210612200045 70 223 2.0 5.0 0.00 0.00 0.51 91 1010.7
20210612195844 70 195 0.0 5.0 0.00 0.00 0.51 89 1010.7
20210612195642 70 99 5.0 6.0 0.00 0.00 0.51 75 1010.6
20210612195440 70 129 0.0 6.0 0.00 0.00 0.51 73 1010.4
20210612195239 70 113 3.0 6.0 0.00 0.00 0.51 72 1010.3
20210612195037 70 151 2.0 9.0 0.00 0.00 0.51 69 1010.1
20210612194836 70 340 3.0 9.0 0.00 0.00 0.51 65 1010.1
20210612194634 70 7 4.0 11.0 0.00 0.00 0.51 63 1009.8
20210612194433 69 298 1.0 11.0 0.00 0.00 0.51 58 1009.7
20210612194231 69 337 5.0 11.0 0.00 0.00 0.51 64 1009.7
20210612194030 69 357 7.0 12.0 0.00 0.00 0.51 67 1009.7
20210612193828 68 322 4.0 12.0 0.00 0.00 0.51 69 1009.8
20210612193627 68 338 4.0 15.0 0.00 0.00 0.51 72 1009.9
20210612193425 68 338 5.0 15.0 0.00 0.00 0.51 75 1010.0
20210612193224 68 298 11.0 15.0 0.00 0.00 0.51 76 1010.1
20210612193022 68 324 9.0 19.0 0.00 0.00 0.51 77 1010.2
20210612192820 67 306 12.0 19.0 0.00 0.00 0.51 78 1010.3
20210612192619 67 320 9.0 15.0 0.00 0.00 0.51 80 1010.4
20210612192417 67 324 9.0 15.0 0.00 0.00 0.51 87 1010.5
20210612192215 67 277 7.0 15.0 0.00 0.00 0.51 87 1010.3
20210612192014 67 319 8.0 16.0 0.00 0.00 0.51 92 1010.2
20210612191812 67 277 2.0 16.0 0.00 0.00 0.51 93 1010.2
20210612191611 67 274 5.0 18.0 0.00 0.00 0.51 95 1010.0
20210612191409 66 348 6.0 18.0 0.00 0.00 0.51 98 1009.8
20210612191208 66 307 9.0 18.0 0.00 0.00 0.50 100 1009.8
20210612191006 66 295 11.0 15.0 0.00 0.00 0.49 100 1010.1
20210612190805 67 316 15.0 15.0 0.00 0.00 0.48 100 1010.6
20210612190603 68 338 9.0 12.0 0.00 0.00 0.46 100 1011.1
20210612190402 68 306 6.0 12.0 0.00 0.00 0.44 100 1011.4
20210612190200 68 326 6.0 35.0 0.00 0.00 0.42 100 1011.6
20210612185959 69 358 2.0 35.0 0.00 0.00 0.36 100 1012.1
20210612185757 69 74 1.0 35.0 0.00 0.00 0.28 100 1012.5
20210612184918 82 129 9.0 14.0 0.00 0.00 0.03 48 1011.6
20210612184716 83 111 8.0 14.0 0.00 0.00 0.03 43 1011.3
20210612184514 84 151 5.0 9.0 0.00 0.00 0.03 41 1011.0
20210612184313 84 161 7.0 9.0 0.00 0.00 0.03 41 1010.7
20210612184111 84 133 6.0 10.0 0.00 0.00 0.03 42 1010.4
20210612183910 84 153 5.0 10.0 0.00 0.00 0.03 42 1010.1
20210612183708 84 174 7.0 10.0 0.00 0.00 0.03 42 1009.8
20210612183507 84 163 5.0 10.0 0.00 0.00 0.03 42 1009.6
20210612183305 84 246 4.0 10.0 0.00 0.00 0.03 41 1009.4
20210612183104 84 270 5.0 10.0 0.00 0.00 0.03 41 1009.3
20210612182902 85 286 4.0 10.0 0.00 0.00 0.03 41 1009.3
20210612182701 85 270 5.0 8.0 0.00 0.00 0.03 40 1009.4
20210612182459 85 227 8.0 8.0 0.00 0.00 0.03 40 1009.5
20210612182258 86 227 2.0 8.0 0.00 0.00 0.03 40 1009.6
20210612182056 85 248 4.0 11.0 0.00 0.00 0.03 40 1009.7
20210612181854 85 194 4.0 11.0 0.00 0.00 0.03 40 1009.7
20210612181653 85 240 5.0 13.0 0.00 0.00 0.03 40 1009.7
20210612181451 86 233 9.0 13.0 0.00 0.00 0.03 39 1009.7
20210612181250 86 196 2.0 13.0 0.00 0.00 0.03 39 1009.8
20210612181048 86 270 7.0 12.0 0.00 0.00 0.03 38 1009.8
20210612180846 87 264 2.0 12.0 0.00 0.00 0.03 37 1009.8
20210612180645 87 239 5.0 4.0 0.00 0.00 0.03 36 1009.9
20210612180443 88 220 3.0 4.0 0.00 0.00 0.03 35 1009.9
20210612180242 88 317 3.0 4.0 0.00 0.00 0.03 35 1009.9
20210612180040 88 265 4.0 10.0 0.00 0.00 0.03 34 1009.8
20210612175839 88 257 2.0 10.0 0.00 0.00 0.03 34 1009.7
20210612175637 88 251 5.0 12.0 0.00 0.00 0.03 34 1009.6
20210612175436 89 279 3.0 12.0 0.00 0.00 0.03 34 1009.5
20210612175234 89 208 2.0 12.0 0.00 0.00 0.03 33 1009.4
20210612175033 89 158 1.0 14.0 0.00 0.00 0.03 33 1009.5
20210612174831 89 222 3.0 14.0 0.00 0.00 0.03 33 1009.5
20210612174630 89 292 4.0 13.0 0.00 0.00 0.03 32 1009.6
20210612174428 90 265 6.0 13.0 0.00 0.00 0.03 31 1009.4
20210612174226 90 300 6.0 13.0 0.00 0.00 0.03 30 1009.4
20210612174025 91 174 8.0 3.0 0.00 0.00 0.03 26 1009.4
20210612173823 91 277 2.0 3.0 0.00 0.00 0.03 26 1009.4
20210612173621 91 303 1.0 5.0 0.00 0.00 0.03 26 1009.3
20210612173420 91 292 0.0 5.0 0.00 0.00 0.03 26 1009.3
20210612173218 91 316 2.0 5.0 0.00 0.00 0.03 26 1009.3
20210612173017 91 288 2.0 6.0 0.00 0.00 0.03 26 1009.3
20210612172815 91 292 2.0 6.0 0.00 0.00 0.03 26 1009.2
20210612172614 91 296 2.0 9.0 0.00 0.00 0.03 26 1009.3
20210612172412 91 333 1.0 9.0 0.00 0.00 0.03 26 1009.3
20210612172211 91 310 1.0 9.0 0.00 0.00 0.03 26 1009.2
20210612172009 92 312 5.0 8.0 0.00 0.00 0.03 26 1009.2
20210612171808 92 277 5.0 8.0 0.00 0.00 0.03 25 1009.1
20210612171606 92 291 3.0 8.0 0.00 0.00 0.03 25 1009.1
20210612171405 93 286 6.0 8.0 0.00 0.00 0.03 24 1009.2
20210612171203 93 285 3.0 8.0 0.00 0.00 0.03 24 1009.2
20210612171002 94 336 4.0 8.0 0.00 0.00 0.03 23 1009.1
20210612170800 95 302 3.0 8.0 0.00 0.00 0.03 21 1009.1
20210612170558 96 275 2.0 4.0 0.00 0.00 0.03 21 1009.1
20210612170356 96 248 3.0 4.0 0.00 0.00 0.03 21 1009.1
20210612170155 96 330 1.0 5.0 0.00 0.00 0.03 21 1009.1
20210612165953 97 313 3.0 5.0 0.00 0.00 0.03 21 1009.2
20210612165752 97 261 2.0 5.0 0.00 0.00 0.03 21 1009.2
20210612165550 96 232 0.0 7.0 0.00 0.00 0.03 21 1009.2
20210612165349 96 232 3.0 7.0 0.00 0.00 0.03 21 1009.1
20210612165147 96 244 2.0 2.0 0.00 0.00 0.03 21 1009.2
20210612164946 97 237 4.0 2.0 0.00 0.00 0.03 20 1009.1
20210612164744 97 267 2.0 2.0 0.00 0.00 0.03 20 1009.2
20210612164543 97 187 1.0 4.0 0.00 0.00 0.03 20 1009.2
20210612164341 96 260 0.0 4.0 0.00 0.00 0.03 21 1009.2
20210612164140 95 260 0.0 5.0 0.00 0.00 0.03 21 1009.1
20210612163938 95 237 4.0 5.0 0.00 0.00 0.03 23 1009.1
20210612163737 94 268 0.0 5.0 0.00 0.00 0.03 23 1009.0
20210612163535 93 243 4.0 4.0 0.00 0.00 0.03 24 1009.0
20210612163333 92 239 0.0 4.0 0.00 0.00 0.03 25 1009.0
20210612163132 92 272 0.0 3.0 0.00 0.00 0.03 25 1009.0
20210612162930 92 289 0.0 3.0 0.00 0.00 0.03 25 1008.9
20210612162728 92 289 0.0 3.0 0.00 0.00 0.03 25 1008.9
20210612162527 92 279 1.0 3.0 0.00 0.00 0.03 25 1008.9
20210612162325 92 306 1.0 3.0 0.00 0.00 0.03 25 1009.0
20210612162124 93 305 2.0 6.0 0.00 0.00 0.03 25 1009.0
20210612161922 93 289 0.0 6.0 0.00 0.00 0.03 25 1009.0
20210612161721 92 312 0.0 6.0 0.00 0.00 0.03 25 1009.0
20210612161519 93 262 0.0 7.0 0.00 0.00 0.03 25 1009.0
20210612161318 93 292 3.0 7.0 0.00 0.00 0.03 25 1009.1
20210612161116 93 233 2.0 8.0 0.00 0.00 0.03 24 1009.1
20210612160915 94 285 4.0 8.0 0.00 0.00 0.03 23 1009.2
20210612160713 94 324 0.0 8.0 0.00 0.00 0.03 24 1009.3
20210612160511 94 351 5.0 9.0 0.00 0.00 0.03 24 1009.2
20210612160310 94 316 4.0 9.0 0.00 0.00 0.03 23 1009.2
20210612160109 95 320 6.0 7.0 0.00 0.00 0.03 22 1009.3
20210612155907 95 244 0.0 7.0 0.00 0.00 0.03 22 1009.3
20210612155705 95 313 5.0 7.0 0.00 0.00 0.03 23 1009.4
20210612155503 95 258 0.0 5.0 0.00 0.00 0.03 22 1009.5
20210612155305 95 292 2.0 5.0 0.00 0.00 0.03 24 1009.5
20210612154859 94 291 3.0 7.0 0.00 0.00 0.03 24 1009.5
20210612154657 93 295 1.0 4.0 0.00 0.00 0.03 25 1009.6
20210612154456 93 299 1.0 4.0 0.00 0.00 0.03 25 1009.5
20210612154254 93 32 0.0 4.0 0.00 0.00 0.03 25 1009.6
20210612154053 93 320 0.0 5.0 0.00 0.00 0.03 25 1009.6
20210612153851 93 295 2.0 5.0 0.00 0.00 0.03 26 1009.6
20210612153650 93 315 2.0 5.0 0.00 0.00 0.03 26 1009.6
20210612153448 93 313 1.0 5.0 0.00 0.00 0.03 26 1009.6
20210612153247 93 278 1.0 5.0 0.00 0.00 0.03 26 1009.7
20210612153045 93 278 0.0 5.0 0.00 0.00 0.03 26 1009.6
20210612152843 93 286 0.0 5.0 0.00 0.00 0.03 26 1009.7
20210612152642 93 274 2.0 4.0 0.00 0.00 0.03 26 1009.7
20210612152440 93 279 0.0 4.0 0.00 0.00 0.03 26 1009.8
20210612152238 94 258 0.0 4.0 0.00 0.00 0.03 26 1009.8
20210612152037 93 299 2.0 3.0 0.00 0.00 0.03 27 1009.9
20210612151835 94 330 1.0 3.0 0.00 0.00 0.03 26 1009.9
20210612151634 94 331 2.0 2.0 0.00 0.00 0.03 25 1009.9
20210612151432 94 323 0.0 2.0 0.00 0.00 0.03 25 1009.9
20210612151231 94 316 0.0 2.0 0.00 0.00 0.03 25 1009.9
20210612151029 94 236 0.0 6.0 0.00 0.00 0.03 25 1009.9
20210612150828 94 236 0.0 6.0 0.00 0.00 0.03 25 1009.9
20210612150626 93 300 1.0 5.0 0.00 0.00 0.03 25 1010.0
20210612150425 93 309 5.0 5.0 0.00 0.00 0.03 25 1010.0
20210612150223 92 299 3.0 5.0 0.00 0.00 0.03 27 1010.0
20210612150022 92 348 3.0 5.0 0.00 0.00 0.03 26 1010.1
20210612145820 92 347 5.0 5.0 0.00 0.00 0.03 26 1010.1
20210612145618 91 307 2.0 7.0 0.00 0.00 0.03 29 1010.1
20210612145417 90 327 1.0 7.0 0.00 0.00 0.03 29 1010.1
20210612145215 90 345 3.0 7.0 0.00 0.00 0.03 30 1010.2
20210612145014 90 330 3.0 5.0 0.00 0.00 0.03 31 1010.2
20210612144812 90 315 0.0 5.0 0.00 0.00 0.03 32 1010.1
20210612144610 90 336 1.0 5.0 0.00 0.00 0.03 32 1010.2
20210612144409 90 288 2.0 5.0 0.00 0.00 0.03 32 1010.2
20210612144207 90 274 0.0 5.0 0.00 0.00 0.03 33 1010.2
20210612144006 90 286 2.0 7.0 0.00 0.00 0.03 34 1010.2
20210612143805 89 307 3.0 7.0 0.00 0.00 0.03 34 1010.2
20210612143603 89 302 3.0 7.0 0.00 0.00 0.03 33 1010.3
20210612143401 89 293 3.0 7.0 0.00 0.00 0.03 32 1010.2
20210612143200 90 329 5.0 4.0 0.00 0.00 0.03 32 1010.3
20210612142958 90 312 5.0 4.0 0.00 0.00 0.03 32 1010.3
20210612142757 90 296 4.0 4.0 0.00 0.00 0.03 32 1010.4
20210612142555 90 310 2.0 5.0 0.00 0.00 0.03 31 1010.4
20210612142353 90 343 4.0 5.0 0.00 0.00 0.03 31 1010.5
20210612142152 90 344 2.0 7.0 0.00 0.00 0.03 31 1010.5
20210612141950 90 279 3.0 7.0 0.00 0.00 0.03 32 1010.5
20210612141749 90 295 3.0 7.0 0.00 0.00 0.03 32 1010.5
20210612141547 90 334 4.0 8.0 0.00 0.00 0.03 31 1010.5
20210612141345 90 277 3.0 8.0 0.00 0.00 0.03 32 1010.6
20210612141144 90 278 2.0 8.0 0.00 0.00 0.03 31 1010.6
20210612140942 91 255 0.0 8.0 0.00 0.00 0.03 31 1010.6
20210612140741 91 260 0.0 8.0 0.00 0.00 0.03 31 1010.5
20210612140539 90 307 2.0 8.0 0.00 0.00 0.03 30 1010.5
20210612140338 90 300 2.0 8.0 0.00 0.00 0.03 30 1010.5
20210612140136 90 277 0.0 6.0 0.00 0.00 0.03 31 1010.6
20210612135935 90 309 5.0 6.0 0.00 0.00 0.03 30 1010.6
20210612135733 90 310 3.0 6.0 0.00 0.00 0.03 31 1010.7
20210612135532 90 310 1.0 8.0 0.00 0.00 0.03 32 1010.6
20210612135330 89 322 4.0 8.0 0.00 0.00 0.03 33 1010.7
20210612135129 89 264 2.0 9.0 0.00 0.00 0.03 33 1010.7
20210612134927 89 307 3.0 9.0 0.00 0.00 0.03 33 1010.8
20210612134726 89 329 6.0 9.0 0.00 0.00 0.03 32 1010.7
20210612134524 90 343 4.0 7.0 0.00 0.00 0.03 31 1010.8
20210612134322 90 310 6.0 7.0 0.00 0.00 0.03 30 1010.7
20210612134121 91 313 2.0 8.0 0.00 0.00 0.03 31 1010.8
20210612133919 90 292 2.0 8.0 0.00 0.00 0.03 31 1010.8
20210612133717 90 275 1.0 8.0 0.00 0.00 0.03 31 1010.8
20210612133516 90 341 7.0 9.0 0.00 0.00 0.03 32 1010.8
20210612133314 90 337 4.0 9.0 0.00 0.00 0.03 32 1010.9
20210612133113 90 329 6.0 8.0 0.00 0.00 0.03 32 1010.9
20210612132911 89 340 5.0 8.0 0.00 0.00 0.03 32 1010.9
20210612132710 90 338 4.0 8.0 0.00 0.00 0.03 32 1010.9
20210612132508 89 320 7.0 8.0 0.00 0.00 0.03 32 1011.0
20210612132307 89 313 4.0 8.0 0.00 0.00 0.03 33 1011.0
20210612132105 89 284 2.0 9.0 0.00 0.00 0.03 32 1011.1
20210612131904 88 333 5.0 9.0 0.00 0.00 0.03 32 1011.1
20210612131702 88 345 3.0 8.0 0.00 0.00 0.03 33 1011.0
20210612131500 89 348 5.0 8.0 0.00 0.00 0.03 34 1011.1
20210612131259 88 322 4.0 8.0 0.00 0.00 0.03 33 1011.2
20210612131057 89 309 1.0 8.0 0.00 0.00 0.03 34 1011.2
20210612130856 87 26 0.0 8.0 0.00 0.00 0.03 34 1011.3
20210612130654 87 351 4.0 6.0 0.00 0.00 0.03 33 1011.3
20210612130452 87 358 6.0 6.0 0.00 0.00 0.03 33 1011.3
20210612130251 88 2 3.0 6.0 0.00 0.00 0.03 31 1011.3
20210612130049 87 305 0.0 7.0 0.00 0.00 0.03 33 1011.3
20210612125848 87 344 2.0 7.0 0.00 0.00 0.03 33 1011.3
20210612125646 87 337 4.0 8.0 0.00 0.00 0.03 33 1011.3
20210612125445 87 344 2.0 8.0 0.00 0.00 0.03 33 1011.3
20210612125243 87 355 6.0 8.0 0.00 0.00 0.03 32 1011.3
20210612125042 87 333 2.0 9.0 0.00 0.00 0.03 33 1011.4
20210612124840 86 351 3.0 9.0 0.00 0.00 0.03 33 1011.3
20210612124639 86 291 6.0 8.0 0.00 0.00 0.03 33 1011.4
20210612124437 86 341 2.0 8.0 0.00 0.00 0.03 34 1011.4
20210612124236 86 327 2.0 8.0 0.00 0.00 0.03 34 1011.4
20210612124034 86 343 6.0 6.0 0.00 0.00 0.03 34 1011.5
20210612123832 86 7 3.0 6.0 0.00 0.00 0.03 35 1011.5
20210612123631 86 265 2.0 9.0 0.00 0.00 0.03 36 1011.5
20210612123429 86 333 3.0 9.0 0.00 0.00 0.03 37 1011.5
20210612123227 86 1 3.0 9.0 0.00 0.00 0.03 37 1011.5
20210612123026 85 319 4.0 9.0 0.00 0.00 0.03 36 1011.6
20210612122824 85 316 4.0 9.0 0.00 0.00 0.03 36 1011.7
20210612122623 84 302 3.0 9.0 0.00 0.00 0.03 35 1011.6
20210612122421 84 347 5.0 9.0 0.00 0.00 0.03 37 1011.6
20210612122220 84 341 6.0 9.0 0.00 0.00 0.03 35 1011.7
20210612122018 85 358 3.0 6.0 0.00 0.00 0.03 33 1011.7
20210612121817 85 313 4.0 6.0 0.00 0.00 0.03 34 1011.7
20210612121615 85 324 1.0 8.0 0.00 0.00 0.03 37 1011.7
20210612121414 85 313 5.0 8.0 0.00 0.00 0.03 36 1011.8
20210612121212 85 338 4.0 8.0 0.00 0.00 0.03 38 1011.8
20210612121011 85 341 2.0 5.0 0.00 0.00 0.03 37 1011.8
20210612120809 85 329 3.0 5.0 0.00 0.00 0.03 39 1011.8
20210612120607 84 21 1.0 7.0 0.00 0.00 0.03 39 1011.8
20210612120406 83 316 3.0 7.0 0.00 0.00 0.03 40 1011.9
20210612120204 83 345 3.0 8.0 0.00 0.00 0.03 41 1011.9
20210612120002 84 8 4.0 8.0 0.00 0.00 0.03 38 1011.9
20210612115801 83 322 3.0 8.0 0.00 0.00 0.03 38 1011.9
20210612115559 83 296 2.0 6.0 0.00 0.00 0.03 40 1012.0
20210612115358 82 343 1.0 6.0 0.00 0.00 0.03 39 1012.0
20210612115156 82 358 2.0 7.0 0.00 0.00 0.03 39 1012.0
20210612114955 82 329 2.0 7.0 0.00 0.00 0.03 39 1012.0
20210612114753 82 354 2.0 7.0 0.00 0.00 0.03 43 1012.0
20210612114552 81 0 2.0 6.0 0.00 0.00 0.03 44 1012.0
20210612114350 80 313 5.0 6.0 0.00 0.00 0.03 46 1012.0
20210612114149 80 333 2.0 5.0 0.00 0.00 0.03 46 1012.1
20210612113947 79 348 5.0 5.0 0.00 0.00 0.03 46 1012.1
20210612113746 80 29 2.0 5.0 0.00 0.00 0.03 47 1012.1
20210612113544 79 7 3.0 7.0 0.00 0.00 0.03 49 1012.1
20210612113342 79 260 1.0 7.0 0.00 0.00 0.03 50 1012.1
20210612113141 78 341 5.0 5.0 0.00 0.00 0.03 52 1012.2
20210612112939 78 16 3.0 5.0 0.00 0.00 0.03 51 1012.1
20210612112738 78 12 3.0 5.0 0.00 0.00 0.03 48 1012.2
20210612112536 79 337 2.0 6.0 0.00 0.00 0.03 53 1012.2
20210612112334 79 18 4.0 6.0 0.00 0.00 0.03 52 1012.1
20210612112133 79 285 1.0 5.0 0.00 0.00 0.03 53 1012.1
20210612111931 78 22 2.0 5.0 0.00 0.00 0.03 51 1012.1
20210612111730 79 329 4.0 5.0 0.00 0.00 0.03 52 1012.2
20210612111528 78 324 1.0 6.0 0.00 0.00 0.03 51 1012.2
20210612111327 78 329 2.0 6.0 0.00 0.00 0.03 53 1012.2
20210612111125 78 4 2.0 5.0 0.00 0.00 0.03 52 1012.3
20210612110924 78 341 2.0 5.0 0.00 0.00 0.03 56 1012.2
20210612110722 78 330 2.0 5.0 0.00 0.00 0.03 56 1012.2
20210612110521 77 338 1.0 5.0 0.00 0.00 0.03 58 1012.2
20210612110319 77 310 4.0 5.0 0.00 0.00 0.03 57 1012.2
20210612110118 77 333 3.0 5.0 0.00 0.00 0.03 58 1012.2
20210612105916 77 338 3.0 5.0 0.00 0.00 0.03 57 1012.2
20210612105714 77 333 2.0 5.0 0.00 0.00 0.03 58 1012.3
20210612105513 77 336 3.0 5.0 0.00 0.00 0.03 60 1012.2
20210612105311 76 282 1.0 5.0 0.00 0.00 0.03 61 1012.2
20210612105109 77 323 3.0 6.0 0.00 0.00 0.03 61 1012.2
20210612104908 76 289 2.0 6.0 0.00 0.00 0.03 63 1012.2
20210612104706 76 306 5.0 6.0 0.00 0.00 0.03 62 1012.2
20210612104505 75 302 5.0 6.0 0.00 0.00 0.03 63 1012.2
20210612104303 75 345 2.0 6.0 0.00 0.00 0.03 62 1012.1
20210612104102 76 338 2.0 5.0 0.00 0.00 0.03 62 1012.2
20210612103900 75 333 2.0 5.0 0.00 0.00 0.03 63 1012.2
20210612103659 75 312 3.0 4.0 0.00 0.00 0.03 62 1012.2
20210612103457 75 322 1.0 4.0 0.00 0.00 0.03 62 1012.2
20210612103256 75 348 0.0 4.0 0.00 0.00 0.03 61 1012.2
20210612103054 75 305 1.0 5.0 0.00 0.00 0.03 64 1012.2
20210612102853 75 282 1.0 5.0 0.00 0.00 0.03 65 1012.2
20210612102651 75 317 2.0 4.0 0.00 0.00 0.03 65 1012.2
20210612102449 75 343 2.0 4.0 0.00 0.00 0.03 64 1012.2
20210612102248 74 326 4.0 4.0 0.00 0.00 0.03 64 1012.2
20210612102046 75 345 1.0 3.0 0.00 0.00 0.03 64 1012.1
20210612101844 75 347 1.0 3.0 0.00 0.00 0.03 64 1012.1
20210612101643 74 39 0.0 4.0 0.00 0.00 0.03 66 1012.1
20210612101441 74 39 1.0 4.0 0.00 0.00 0.03 66 1012.1
20210612101240 73 355 2.0 4.0 0.00 0.00 0.03 67 1012.1
20210612101038 73 12 0.0 4.0 0.00 0.00 0.03 68 1012.0
20210612100837 73 309 1.0 4.0 0.00 0.00 0.03 68 1012.0
20210612100635 73 336 3.0 4.0 0.00 0.00 0.03 68 1012.0
20210612100434 73 348 3.0 4.0 0.00 0.00 0.03 69 1011.9
20210612100232 72 306 0.0 4.0 0.00 0.00 0.03 70 1011.8
20210612100031 72 298 1.0 4.0 0.00 0.00 0.03 71 1011.8
20210612095829 72 344 1.0 4.0 0.00 0.00 0.03 71 1011.8
20210612095628 72 329 2.0 5.0 0.00 0.00 0.03 72 1011.8
20210612095426 71 327 2.0 5.0 0.00 0.00 0.03 74 1011.8
20210612095224 71 0 1.0 5.0 0.00 0.00 0.03 73 1011.8
20210612095023 70 326 1.0 4.0 0.00 0.00 0.03 74 1011.7
20210612094821 71 345 2.0 4.0 0.00 0.00 0.03 72 1011.8
20210612094619 71 354 2.0 3.0 0.00 0.00 0.03 72 1011.8
20210612094418 71 319 2.0 3.0 0.00 0.00 0.03 72 1011.8
20210612094217 71 61 1.0 3.0 0.00 0.00 0.03 72 1011.7
20210612094015 71 329 1.0 4.0 0.00 0.00 0.03 73 1011.8
20210612093813 71 338 2.0 4.0 0.00 0.00 0.03 74 1011.6
20210612093612 71 343 3.0 5.0 0.00 0.00 0.03 74 1011.6
20210612093410 71 345 3.0 5.0 0.00 0.00 0.03 74 1011.6
20210612093209 71 7 2.0 5.0 0.00 0.00 0.03 73 1011.6
20210612093007 71 23 1.0 4.0 0.00 0.00 0.03 73 1011.6
20210612092806 71 284 0.0 4.0 0.00 0.00 0.03 74 1011.5
20210612092604 71 344 1.0 6.0 0.00 0.00 0.03 74 1011.6
20210612092403 70 348 0.0 6.0 0.00 0.00 0.03 74 1011.6
20210612091959 71 341 3.0 2.0 0.00 0.00 0.03 74 1011.6
20210612091758 71 112 1.0 2.0 0.00 0.00 0.03 75 1011.6
20210612091556 71 16 1.0 4.0 0.00 0.00 0.03 76 1011.7
20210612091355 70 310 0.0 4.0 0.00 0.00 0.03 76 1011.7
20210612090951 71 329 2.0 3.0 0.00 0.00 0.03 75 1011.7
20210612090750 70 327 3.0 3.0 0.00 0.00 0.03 76 1011.6
20210612090548 70 289 1.0 1.0 0.00 0.00 0.03 77 1011.6
20210612090347 70 293 0.0 1.0 0.00 0.00 0.03 79 1011.7
20210612090145 69 223 0.0 0.0 0.00 0.00 0.03 79 1011.6
20210612085944 69 250 0.0 0.0 0.00 0.00 0.03 80 1011.6
20210612085742 69 226 0.0 0.0 0.00 0.00 0.03 80 1011.7
20210612085541 69 226 0.0 2.0 0.00 0.00 0.03 80 1011.6
20210612085339 69 226 0.0 2.0 0.00 0.00 0.03 79 1011.6
20210612085138 69 293 0.0 0.0 0.00 0.00 0.03 79 1011.6
20210612084936 69 306 0.0 0.0 0.00 0.00 0.03 80 1011.7
20210612084735 68 306 0.0 0.0 0.00 0.00 0.03 80 1011.7
20210612084533 69 306 0.0 2.0 0.00 0.00 0.03 81 1011.7
20210612084331 68 306 0.0 2.0 0.00 0.00 0.03 81 1011.7
20210612084130 68 306 0.0 2.0 0.00 0.00 0.03 80 1011.8
20210612083928 68 147 0.0 2.0 0.00 0.00 0.03 81 1011.8
20210612083726 68 147 0.0 2.0 0.00 0.00 0.03 81 1011.9
20210612083525 68 147 0.0 3.0 0.00 0.00 0.03 80 1011.9
20210612083323 68 127 1.0 3.0 0.00 0.00 0.03 80 1011.8